Regional Weather Roundup
Issued by NWS

Home | Current Version | Previous Version | Text Only | Print | Product List | Glossary Off
Versions: 1 2 3 4 5 6 7 8 9 10 11 12 13 14 15 16 17 18 19 20 21 22 23 24 25 26 27 28 29 30 31 32 33 34 35 36 37 38 39 40 41 42 43 44 45 46 47 48 49 50

742
ASUS43 KLSX 262210
RWRMO

WEATHER SUMMARY FOR MISSOURI
NATIONAL WEATHER SERVICE SPRINGFIELD MO
500 PM CDT SUN MAR 26 2017

NOTE: "FAIR" INDICATES FEW OR NO CLOUDS BELOW 12,000 FEET WITH NO
       SIGNIFICANT WEATHER AND/OR OBSTRUCTIONS TO VISIBILITY.
       CURRENT SKY AND/OR WEATHER CONDITIONS ARE NOT AVAILABLE FOR
       CHILLICOTHE AND FARMINGTON.

MOZ001>031-035>038-043-044-053-054-262300-
...NORTHERN AND WESTERN MISSOURI...

CITY           SKY/WX    TMP DP  RH WIND       PRES   REMARKS
KANSAS CTY INT CLOUDY    50  44  80 N3        29.89F
KANSAS C DTWN  CLOUDY    53  44  71 CALM      29.89F
LEE`S SUMMIT   CLOUDY    54  45  71 SW3       29.90S
ST JOSEPH      CLOUDY    50  43  77 N6        29.90F
CHILLICOTHE      N/A     52  44  74 NW3       29.92S
KIRKSVILLE     CLOUDY    50  44  80 W7        29.90S

$$
MOZ066>068-077>081-088>096-101>105-262300-
...SOUTHWEST MISSOURI...

CITY           SKY/WX    TMP DP  RH WIND       PRES   REMARKS
SPRINGFIELD    CLOUDY    66  49  54 SW10      29.88S
JOPLIN         CLOUDY    68  50  52 E10       29.83F
BRANSON        CLOUDY    68  48  49 CALM      29.90S

$$
MOZ032>034-039>042-045>050-055>058-069>072-262300-
...CENTRAL MISSOURI...

CITY           SKY/WX    TMP DP  RH WIND       PRES   REMARKS
COLUMBIA       CLOUDY    57  49  74 W6        29.91S
JEFFERSON CITY CLOUDY    62  49  62 W8        29.91R
ROLLA          SUNNY     62  50  64 W5        29.89S
SEDALIA        CLOUDY    57  48  72 SW3       29.91S
WHITEMAN AFB   CLOUDY    56  51  82 W3        29.89S
WARRENSBURG    CLOUDY    54  45  71 SW6       29.90S
OSAGE BEACH    CLOUDY   N/A N/A N/A CALM      29.92R

$$
MOZ051-052-059>065-262300-
...EAST CENTRAL MISSOURI...

CITY           SKY/WX    TMP DP  RH WIND       PRES   REMARKS
ST LOUIS INTL  PTSUNNY   62  49  62 W7        29.91R
SPIRIT OF STL  CLOUDY    62  51  67 W5        29.90S
ST CHARLES     CLOUDY    59  50  72 NW7       29.89F

$$
MOZ072>076-082>087-097>100-106>115-262300-
...SOUTH CENTRAL AND SOUTHEAST MISSOURI...

CITY           SKY/WX    TMP DP  RH WIND       PRES   REMARKS
CAPE GIRARDEAU SUNNY     64  49  57 SW12      29.93F
FARMINGTON     CLOUDY    64  49  57 W8        29.92S
POPLAR BLUFF   SUNNY     65  51  60 SW8       29.93S
WEST PLAINS    CLOUDY    65  48  54 S9        29.92S

$$




USA.gov is the U.S. government's official web portal to all federal, state and local government web resources and services.